OBJECT G, 44885

Orbit data source: Space-Track

You're viewing an Uncataloged Satellite

Recently launched and/or uncataloged satellites may have evolving metadata. Metadata may include but not limited to: Owner, Maufacturer, Bus, Motor, and Mission.

OBJECT G, 44885 is a satellite in SSO that was launched on Fri, 20 Dec 2019 UTC via a CHANG ZHENG 4B launch vehicle from the Taiyaun Space Center, China (TSC). Unknown objects in Earth's orbit typically refer to objects detected orbiting the Earth but have not yet been identified or cataloged. These objects could be anything from previously untracked satellites, spent rocket stages, debris from satellite collisions, or even natural meteoroids temporarily captured by Earth's gravity.

Loading next visibility...
Identifier
44885, 2019-093G
Orbit
SSO
Country
Flag of TBDTBD
Related business
Flag of BRFederal University of Santa Catarina (BR)
Manufacturer
UFSC
Mission
Operational Amateur Technology
Bus & Motor
CUBESAT 1U, Unknown motor
Mass
1 kg wet, 1 kg dry
Launch date (UTC)
2019-12-20 (7 years ago)
Launch vehicle
CHANG ZHENG 4B
Launch site
Taiyaun Space Center, China (TSC)
Object type
Unknown
Shape & HBR
Box, 0.1 m
Radar Cross Section
0.015 m², Medium (>0.1 m² and < 1m²)

Expand to show TLE details & history
Last TLE update: 7 hours ago

TLE from 7 hours ago
0 OBJECT G
1 44885U 19093G   26208.60774781  .00006721  00000-0  48702-3 0  9999
2 44885  97.7933 303.1439 0010412 294.3770  65.6369 15.04255613358724
Epoch: 2026-07-27T14:35Z
TLE epoch observation values (Epoch: 2026-07-27T14:35:09.410Z)
Latitude
0.00003°
Longitude
139.0658°
Altitude
553.877 km
Speed
7.586 km/s
True Right ascension
20h 12m 34s
True Declination
0° 00' 00"
Sunlit
Object was in full shadow at epoch
Visualization orbit readout
Latitude
Unknown
Longitude
Unknown
Altitude
Unknown
Speed
Unknown
Apparent Right ascension
Unknown
Apparent Declination
Unknown
Sunlit
N/A
Visualization observer readout
Local Sidereal Time
10:31:31
Azimuth
Unknown
Elevation
Unknown
Doppler factor
Unknown
Orbital elements
Apogee altitude
558.01 km
Perigee altitude
543.581 km
Semi-major axis
6,928.932 km
Eccentricity
0.00104
Inclination
97.7933°
RAAN
303.1439°
Arg. of periapsis
294.377°
True anomaly
65.74565°
Mean anomaly
65.6369°
Eccentric anomaly
65.69127°
Mean motion
3.76308 °/min
Orbital period
95.67 mins
BSTAR
0.00048702
Loading maneuver chart data...
Computing Atmospheric mass density...
Loading historical data...
Loading historical data...
Loading historical data...
Loading historical data...
Loading historical data...
Loading historical data...
Loading historical data...

Documentation

Showing up to 5 results
|